�������l�o���
Date,Time,MP-1(��Sv/h),MP-2(��Sv/h),MP-3(��Sv/h),MP-4(��Sv/h),MP-5(��Sv/h),MP-6(��Sv/h),MP-7(��Sv/h),MP-8(��Sv/h),����,����(m/s),���J
2019/09/15,00:00,0.744,1.057,0.727,1.296,0.948,0.424,0.737,0.695,��쐼,8.3,��
2019/09/15,00:10,0.748,1.059,0.728,1.297,0.949,0.425,0.737,0.696,��쐼,8.5,��
2019/09/15,00:20,0.745,1.058,0.729,1.297,0.949,0.425,0.738,0.696,��쐼,8.8,��
2019/09/15,00:30,0.746,1.057,0.730,1.296,0.950,0.424,0.740,0.695,��,8.8,��
2019/09/15,00:40,0.745,1.058,0.729,1.296,0.949,0.424,0.736,0.695,��,8.3,��
2019/09/15,00:50,0.745,1.055,0.728,1.296,0.948,0.424,0.737,0.695,��쐼,7.9,��
2019/09/15,01:00,0.747,1.059,0.726,1.297,0.949,0.424,0.737,0.696,��쐼,7.4,��
2019/09/15,01:10,0.744,1.057,0.728,1.295,0.948,0.423,0.736,0.697,��쐼,7.0,��
2019/09/15,01:20,0.747,1.057,0.728,1.296,0.950,0.422,0.736,0.695,��,6.6,��
2019/09/15,01:30,0.747,1.056,0.727,1.297,0.947,0.424,0.736,0.694,��쐼,6.3,��
2019/09/15,01:40,0.748,1.057,0.729,1.295,0.947,0.425,0.736,0.696,��쐼,6.0,��
2019/09/15,01:50,0.747,1.056,0.727,1.297,0.948,0.425,0.737,0.695,��쐼,5.0,��
2019/09/15,02:00,0.747,1.056,0.727,1.298,0.949,0.425,0.737,0.695,��쐼,4.5,��
2019/09/15,02:10,0.745,1.056,0.728,1.296,0.947,0.425,0.737,0.696,��쐼,4.5,��
2019/09/15,02:20,0.746,1.058,0.727,1.295,0.948,0.424,0.737,0.697,��쐼,3.8,��
2019/09/15,02:30,0.747,1.055,0.728,1.295,0.948,0.425,0.736,0.696,�쐼,2.8,��
2019/09/15,02:40,0.746,1.056,0.727,1.296,0.947,0.425,0.736,0.697,��쐼,3.0,��
2019/09/15,02:50,0.746,1.056,0.727,1.295,0.949,0.423,0.737,0.695,�쐼,2.3,��
2019/09/15,03:00,0.747,1.055,0.725,1.296,0.950,0.424,0.737,0.697,�쐼,2.3,��
2019/09/15,03:10,0.745,1.056,0.727,1.296,0.945,0.424,0.735,0.695,�쐼,2.5,��
2019/09/15,03:20,0.747,1.053,0.728,1.297,0.948,0.423,0.737,0.696,���쐼,2.5,��
2019/09/15,03:30,0.748,1.057,0.726,1.295,0.948,0.423,0.737,0.696,�쐼,2.2,��
2019/09/15,03:40,0.745,1.057,0.728,1.297,0.947,0.424,0.737,0.695,�쐼,2.3,��
2019/09/15,03:50,0.745,1.056,0.726,1.295,0.948,0.424,0.737,0.695,�쐼,2.2,��
2019/09/15,04:00,0.746,1.055,0.728,1.298,0.948,0.424,0.737,0.695,�쐼,2.5,��
2019/09/15,04:10,0.746,1.055,0.727,1.298,0.949,0.423,0.737,0.695,�쐼,3.2,��
2019/09/15,04:20,0.747,1.056,0.727,1.297,0.947,0.424,0.737,0.695,�쐼,3.9,��
2019/09/15,04:30,0.745,1.056,0.727,1.297,0.948,0.423,0.737,0.697,�쐼,3.3,��
2019/09/15,04:40,0.744,1.054,0.728,1.295,0.948,0.424,0.737,0.696,�쐼,2.6,��
2019/09/15,04:50,0.748,1.055,0.727,1.294,0.949,0.423,0.736,0.696,��쐼,2.6,��
2019/09/15,05:00,0.747,1.054,0.727,1.295,0.949,0.424,0.738,0.694,��쐼,2.6,��
2019/09/15,05:10,0.745,1.055,0.725,1.295,0.948,0.424,0.738,0.695,��,2.5,��
2019/09/15,05:20,0.746,1.055,0.726,1.295,0.947,0.424,0.736,0.695,��쓌,2.3,��
2019/09/15,05:30,0.747,1.054,0.727,1.295,0.948,0.424,0.737,0.696,��쓌,3.2,��
2019/09/15,05:40,0.746,1.055,0.729,1.297,0.947,0.424,0.737,0.696,��쓌,2.3,��
2019/09/15,05:50,0.745,1.057,0.728,1.297,0.947,0.424,0.738,0.693,�쓌,2.2,��
2019/09/15,06:00,0.745,1.052,0.728,1.296,0.946,0.423,0.736,0.696,�쓌,2.0,��
2019/09/15,06:10,0.746,1.057,0.726,1.296,0.948,0.424,0.736,0.696,�쓌,1.7,��
2019/09/15,06:20,0.747,1.055,0.727,1.296,0.950,0.424,0.736,0.695,��쓌,2.2,��
2019/09/15,06:30,0.746,1.056,0.728,1.297,0.946,0.423,0.737,0.697,��쓌,1.5,��
2019/09/15,06:40,0.746,1.055,0.727,1.297,0.948,0.423,0.737,0.696,��쓌,1.2,��
2019/09/15,06:50,0.747,1.056,0.728,1.296,0.948,0.422,0.738,0.696,��쓌,1.4,��
2019/09/15,07:00,0.746,1.056,0.729,1.297,0.948,0.424,0.737,0.696,��쓌,1.5,��
2019/09/15,07:10,0.748,1.056,0.729,1.296,0.947,0.424,0.739,0.696,��,1.5,��
2019/09/15,07:20,0.748,1.052,0.727,1.297,0.947,0.422,0.738,0.697,��쓌,1.7,��
2019/09/15,07:30,0.748,1.055,0.729,1.296,0.948,0.422,0.738,0.697,��쐼,0.8,��
2019/09/15,07:40,0.747,1.053,0.727,1.300,0.949,0.421,0.738,0.696,���쓌,0.6,��
2019/09/15,07:50,0.748,1.053,0.728,1.298,0.947,0.422,0.738,0.696,��쓌,1.4,��
2019/09/15,08:00,0.748,1.057,0.728,1.297,0.947,0.421,0.738,0.696,�쓌,1.5,��
2019/09/15,08:10,0.747,1.054,0.725,1.298,0.950,0.423,0.738,0.696,�쓌,2.0,��
2019/09/15,08:20,0.745,1.051,0.723,1.298,0.948,0.422,0.737,0.697,�쓌,1.9,��
2019/09/15,08:30,0.745,1.054,0.728,1.298,0.949,0.423,0.735,0.698,���쓌,2.5,��
2019/09/15,08:40,0.746,1.053,0.726,1.299,0.947,0.422,0.735,0.694,�쓌,2.0,��
2019/09/15,08:50,0.746,1.054,0.726,1.297,0.949,0.422,0.736,0.694,�쓌,2.0,��
2019/09/15,09:00,0.747,1.055,0.726,1.297,0.948,0.423,0.736,0.694,�쓌,3.6,��
2019/09/15,09:10,0.748,1.054,0.726,1.300,0.948,0.422,0.736,0.694,�쓌,2.9,��
2019/09/15,09:20,0.747,1.055,0.728,1.298,0.948,0.424,0.738,0.694,��쓌,2.0,��
2019/09/15,09:30,0.746,1.056,0.728,1.299,0.948,0.424,0.736,0.695,���쓌,2.5,��
2019/09/15,09:40,0.747,1.058,0.725,1.297,0.949,0.424,0.737,0.696,�쓌,2.8,��
2019/09/15,09:50,0.748,1.057,0.727,1.299,0.951,0.423,0.736,0.693,�쓌,2.6,��
2019/09/15,10:00,0.747,1.057,0.727,1.299,0.952,0.425,0.736,0.694,��쓌,3.3,��
2019/09/15,10:10,0.749,1.058,0.728,1.298,0.951,0.423,0.737,0.695,�쓌,2.9,��
2019/09/15,10:20,0.747,1.058,0.727,1.299,0.949,0.425,0.739,0.694,���쓌,3.9,��
2019/09/15,10:30,0.748,1.060,0.729,1.299,0.952,0.426,0.739,0.694,���쓌,3.8,��
2019/09/15,10:40,0.748,1.061,0.727,1.298,0.951,0.425,0.737,0.695,���쓌,3.8,��
2019/09/15,10:50,0.749,1.060,0.730,1.300,0.952,0.425,0.739,0.695,�쓌,3.5,��
2019/09/15,11:00,0.749,1.062,0.728,1.296,0.951,0.424,0.737,0.695,�쓌,3.1,��
2019/09/15,11:10,0.748,1.062,0.729,1.298,0.952,0.423,0.737,0.696,���쓌,3.2,��
2019/09/15,11:20,0.749,1.064,0.729,1.298,0.952,0.425,0.739,0.695,�쓌,3.9,��
2019/09/15,11:30,0.749,1.064,0.730,1.301,0.952,0.424,0.737,0.696,�쓌,3.6,��
2019/09/15,11:40,0.751,1.063,0.730,1.300,0.956,0.425,0.739,0.696,���쓌,3.8,��
2019/09/15,11:50,0.751,1.065,0.732,1.300,0.953,0.424,0.738,0.695,�쓌,3.2,��
2019/09/15,12:00,0.750,1.066,0.729,1.300,0.955,0.424,0.740,0.697,��,3.5,��
2019/09/15,12:10,0.749,1.065,0.730,1.302,0.954,0.424,0.737,0.695,��,2.8,��
2019/09/15,12:20,0.749,1.066,0.732,1.300,0.955,0.425,0.738,0.695,���쓌,2.9,��
2019/09/15,12:30,0.752,1.066,0.730,1.298,0.957,0.426,0.739,0.696,��,2.3,��
2019/09/15,12:40,0.750,1.071,0.732,1.302,0.955,0.426,0.738,0.696,���쓌,2.6,��
2019/09/15,12:50,0.753,1.070,0.732,1.299,0.956,0.425,0.739,0.694,��,2.2,��
2019/09/15,13:00,0.753,1.067,0.733,1.300,0.958,0.425,0.739,0.696,���쓌,3.3,��
2019/09/15,13:10,0.750,1.066,0.732,1.300,0.957,0.423,0.738,0.697,���쓌,4.1,��
2019/09/15,13:20,0.750,1.068,0.732,1.298,0.955,0.425,0.740,0.695,��,3.6,��
2019/09/15,13:30,0.750,1.068,0.732,1.301,0.958,0.425,0.740,0.697,���쓌,3.6,��
2019/09/15,13:40,0.751,1.065,0.732,1.303,0.957,0.424,0.738,0.696,��,2.9,��
2019/09/15,13:50,0.753,1.070,0.733,1.303,0.956,0.425,0.738,0.696,���k��,2.6,��
2019/09/15,14:00,0.753,1.066,0.732,1.302,0.956,0.425,0.740,0.695,���k��,2.5,��
2019/09/15,14:10,0.753,1.068,0.731,1.300,0.956,0.427,0.739,0.696,��,2.3,��
2019/09/15,14:20,0.752,1.068,0.733,1.300,0.957,0.425,0.739,0.696,��,2.0,��
2019/09/15,14:30,0.752,1.071,0.731,1.301,0.959,0.424,0.740,0.697,�k��,2.9,��
2019/09/15,14:40,0.752,1.070,0.733,1.302,0.959,0.426,0.741,0.697,���k��,2.0,��
2019/09/15,14:50,0.753,1.068,0.731,1.300,0.958,0.425,0.739,0.696,���k��,2.0,��
2019/09/15,15:00,0.753,1.069,0.732,1.302,0.959,0.425,0.740,0.698,���k��,2.2,��
2019/09/15,15:10,0.751,1.070,0.734,1.304,0.959,0.427,0.739,0.696,���k��,2.0,��
2019/09/15,15:20,0.752,1.069,0.732,1.304,0.960,0.425,0.737,0.697,���k��,2.2,��
2019/09/15,15:30,0.751,1.069,0.731,1.301,0.959,0.424,0.738,0.696,���k��,2.3,��
2019/09/15,15:40,0.753,1.072,0.734,1.302,0.958,0.425,0.738,0.696,���k��,2.0,��
2019/09/15,15:50,0.752,1.069,0.731,1.301,0.959,0.425,0.739,0.697,���k��,2.0,��
2019/09/15,16:00,0.753,1.069,0.732,1.302,0.957,0.428,0.739,0.697,�k�k��,2.5,��
2019/09/15,16:10,0.751,1.072,0.733,1.300,0.958,0.425,0.738,0.697,�k��,2.6,��
2019/09/15,16:20,0.753,1.069,0.733,1.302,0.958,0.424,0.737,0.697,�k�k��,2.9,��
2019/09/15,16:30,0.749,1.071,0.732,1.301,0.960,0.426,0.738,0.695,�k�k��,3.0,��
2019/09/15,16:40,0.754,1.069,0.732,1.301,0.958,0.426,0.739,0.696,�k�k��,3.0,��
2019/09/15,16:50,0.751,1.070,0.733,1.299,0.959,0.424,0.738,0.695,�k�k��,3.3,��
2019/09/15,17:00,0.750,1.070,0.731,1.300,0.958,0.426,0.739,0.695,�k�k��,3.2,��
2019/09/15,17:10,0.751,1.070,0.731,1.301,0.957,0.424,0.739,0.696,�k�k��,3.1,��
2019/09/15,17:20,0.753,1.070,0.733,1.300,0.958,0.424,0.738,0.695,�k�k��,3.1,��
2019/09/15,17:30,0.751,1.070,0.731,1.300,0.957,0.424,0.739,0.695,�k�k��,3.0,��
2019/09/15,17:40,0.752,1.071,0.732,1.300,0.958,0.424,0.738,0.698,�k�k��,3.1,��
2019/09/15,17:50,0.752,1.070,0.732,1.302,0.955,0.425,0.740,0.698,�k�k��,3.1,��
2019/09/15,18:00,0.751,1.070,0.733,1.302,0.957,0.424,0.739,0.696,�k�k��,3.1,��
2019/09/15,18:10,0.750,1.069,0.730,1.300,0.961,0.424,0.738,0.698,�k,3.0,��
2019/09/15,18:20,0.749,1.069,0.732,1.304,0.959,0.426,0.741,0.696,�k,2.5,��
2019/09/15,18:30,0.752,1.072,0.733,1.303,0.959,0.425,0.738,0.699,�k,2.7,��
2019/09/15,18:40,0.753,1.072,0.734,1.303,0.960,0.424,0.740,0.699,��,2.6,��
2019/09/15,18:50,0.752,1.069,0.732,1.307,0.959,0.425,0.739,0.699,�k,3.0,��
2019/09/15,19:00,0.752,1.072,0.734,1.305,0.960,0.423,0.740,0.698,�k�k��,4.0,��
2019/09/15,19:10,0.752,1.071,0.734,1.305,0.959,0.425,0.739,0.698,�k�k��,3.6,��
2019/09/15,19:20,0.752,1.071,0.734,1.304,0.959,0.423,0.740,0.698,�k�k��,3.3,��
2019/09/15,19:30,0.752,1.070,0.732,1.305,0.959,0.424,0.740,0.699,�k�k��,3.1,��
2019/09/15,19:40,0.749,1.071,0.735,1.305,0.959,0.424,0.739,0.698,�k�k��,3.3,��
2019/09/15,19:50,0.753,1.071,0.735,1.305,0.960,0.423,0.742,0.698,�k�k��,3.3,��
2019/09/15,20:00,0.752,1.070,0.735,1.304,0.960,0.425,0.740,0.698,�k�k��,4.1,��
2019/09/15,20:10,0.753,1.072,0.735,1.306,0.961,0.424,0.739,0.698,�k�k��,4.2,��
2019/09/15,20:20,0.753,1.070,0.734,1.303,0.960,0.425,0.741,0.698,�k�k��,4.8,��
2019/09/15,20:30,0.754,1.071,0.734,1.304,0.960,0.422,0.741,0.699,�k�k��,5.2,��
2019/09/15,20:40,0.752,1.069,0.734,1.304,0.960,0.425,0.741,0.698,�k�k��,5.4,��
2019/09/15,20:50,0.751,1.070,0.736,1.303,0.960,0.425,0.740,0.699,�k�k��,5.4,��
2019/09/15,21:00,0.750,1.071,0.734,1.304,0.959,0.424,0.739,0.699,�k�k��,4.9,�L
2019/09/15,21:10,0.751,1.067,0.734,1.305,0.958,0.424,0.738,0.699,�k�k��,5.2,�L
2019/09/15,21:20,0.750,1.070,0.733,1.300,0.958,0.424,0.739,0.698,�k�k��,4.9,�L
2019/09/15,21:30,0.752,1.069,0.735,1.303,0.954,0.422,0.739,0.698,�k�k��,4.5,�L
2019/09/15,21:40,0.748,1.061,0.729,1.301,0.954,0.421,0.735,0.696,�k�k��,5.0,�L
2019/09/15,21:50,0.745,1.058,0.727,1.298,0.953,0.420,0.734,0.699,�k�k��,5.4,�L
2019/09/15,22:00,0.745,1.054,0.726,1.299,0.949,0.421,0.735,0.697,�k�k��,5.7,�L
2019/09/15,22:10,0.745,1.054,0.727,1.300,0.949,0.418,0.734,0.698,�k�k��,5.1,�L
2019/09/15,22:20,0.745,1.053,0.726,1.299,0.948,0.420,0.734,0.696,�k�k��,4.1,�L
2019/09/15,22:30,0.746,1.054,0.727,1.301,0.947,0.420,0.736,0.696,�k,3.2,�L
2019/09/15,22:40,0.745,1.054,0.727,1.296,0.946,0.420,0.737,0.696,�k��,2.3,�L
2019/09/15,22:50,0.745,1.051,0.728,1.295,0.944,0.419,0.733,0.695,�k�k��,2.8,�L
2019/09/15,23:00,0.744,1.049,0.725,1.295,0.939,0.419,0.733,0.695,�k�k��,4.0,�L
2019/09/15,23:10,0.741,1.048,0.722,1.292,0.938,0.417,0.731,0.694,�k�k��,3.1,�L
2019/09/15,23:20,0.741,1.046,0.724,1.291,0.938,0.417,0.732,0.693,�k�k��,3.6,�L
2019/09/15,23:30,0.742,1.046,0.723,1.290,0.939,0.418,0.731,0.694,�k��,4.9,�L
2019/09/15,23:40,0.741,1.045,0.720,1.291,0.936,0.417,0.733,0.694,�k��,4.2,�L
2019/09/15,23:50,0.743,1.047,0.721,1.290,0.936,0.417,0.731,0.693,�k��,3.6,�L
